Location: Newark
(40.9833°N, 0.0333°W)
Time: 07:22:45
(UTC+00:00)

Vanguard 2 Rocket - Pass Details

Date: 30 October 2020
Orbit: 554 x 3326 km, 32.9° (Epoch: 25 November)

Event Time Altitude Azimuth Distance (km) Brightness Sun altitude
Rises 00:04:39 0° 256° (WSW) 3,801 - -62.5°
Reaches altitude 10° 00:08:50 10° 229° (SW) 3,322 - -62.3°
Maximum altitude 00:12:30 13° 203° (SSW) 3,481 - -62.2°
Drops below altitude 10° 00:16:59 10° 179° (S) 4,237 - -61.9°
Sets 00:24:08 0° 157° (SSE) 5,956 - -61.5°
